N7460B EDAZ-EDAZ

Flight info

Callsign N7460B
Flight time N/A
Altitude 2500
Route DCT KLF DCT LUROS/N0174F120 IFR M725 KOBUS P31 GARKI/N0120A045 VFR DCT
Aircraft C208/L-SDFGYR/C

Departure

Time 2026-04-29 18:22
Airport Schönhagen Airfield (EDAZ)

Arrival

Time N/A
Airport Schönhagen Airfield (EDAZ)
Time Latitude Longitude Altitude Speed Heading
2026-04-29 17:49 52.20444 13.15030 148 ft 0 kts 165°
2026-04-29 18:09 52.20433 13.15035 147 ft 7 kts 166°
2026-04-29 18:09 52.20422 13.15039 147 ft 0 kts 175°
2026-04-29 18:17 52.20405 13.15032 146 ft 2 kts 205°
2026-04-29 18:17 52.20390 13.14973 146 ft 5 kts 231°
2026-04-29 18:18 52.20354 13.14948 138 ft 7 kts 190°
2026-04-29 18:18 52.20332 13.14952 136 ft 3 kts 165°
2026-04-29 18:18 52.20309 13.14959 136 ft 0 kts 169°
2026-04-29 18:19 52.20295 13.14963 136 ft 1 kts 172°
2026-04-29 18:19 52.20289 13.14965 136 ft 4 kts 169°
2026-04-29 18:19 52.20278 13.14969 136 ft 0 kts 166°
2026-04-29 18:20 52.20254 13.14978 137 ft 0 kts 166°
2026-04-29 18:20 52.20237 13.14992 138 ft 4 kts 141°
2026-04-29 18:20 52.20235 13.15012 139 ft 0 kts 75°
2026-04-29 18:21 52.20236 13.15017 140 ft 4 kts 75°
2026-04-29 18:21 52.20280 13.15301 147 ft 52 kts 76°
2026-04-29 18:21 52.20401 13.16092 250 ft 81 kts 77°
2026-04-29 18:21 52.20549 13.17044 443 ft 90 kts 75°
2026-04-29 18:22 52.20654 13.17712 645 ft 88 kts 81°
2026-04-29 18:22 52.20256 13.18932 758 ft 109 kts 143°
2026-04-29 18:22 52.19536 13.19308 830 ft 110 kts 168°
2026-04-29 18:22 52.18768 13.19362 895 ft 108 kts 170°
2026-04-29 18:23 52.18264 13.19392 966 ft 109 kts 178°
2026-04-29 18:23 52.17540 13.18967 981 ft 117 kts 213°
2026-04-29 18:23 52.17129 13.17827 999 ft 124 kts 260°
2026-04-29 18:23 52.17137 13.16327 919 ft 141 kts 274°
2026-04-29 18:24 52.17169 13.14774 956 ft 135 kts 273°
2026-04-29 18:24 52.17267 13.13258 937 ft 131 kts 294°
2026-04-29 18:24 52.17840 13.12171 852 ft 128 kts 336°
2026-04-29 18:24 52.18714 13.11943 669 ft 129 kts
2026-04-29 18:25 52.19431 13.12324 692 ft 103 kts 43°
2026-04-29 18:25 52.19858 13.13061 577 ft 83 kts 55°
2026-04-29 18:25 52.20068 13.13899 382 ft 80 kts 74°
2026-04-29 18:25 52.20202 13.14758 260 ft 75 kts 76°
2026-04-29 18:26 52.20322 13.15561 149 ft 66 kts 76°
2026-04-29 18:26 52.20423 13.16214 141 ft 64 kts 75°
2026-04-29 18:26 52.20550 13.17065 292 ft 82 kts 78°
2026-04-29 18:26 52.20683 13.18011 531 ft 88 kts 76°
2026-04-29 18:27 52.20716 13.19017 769 ft 96 kts 107°
2026-04-29 18:27 52.20220 13.19758 916 ft 109 kts 159°
2026-04-29 18:27 52.19437 13.19585 927 ft 116 kts 193°
2026-04-29 18:27 52.18679 13.19196 926 ft 114 kts 192°
2026-04-29 18:28 52.17985 13.18606 925 ft 117 kts 221°
2026-04-29 18:28 52.17594 13.17456 926 ft 118 kts 257°
2026-04-29 18:28 52.17437 13.16145 946 ft 118 kts 259°
2026-04-29 18:28 52.17294 13.14847 974 ft 117 kts 259°
2026-04-29 18:29 52.17097 13.13547 961 ft 118 kts 257°
2026-04-29 18:29 52.17345 13.12363 893 ft 115 kts 327°
2026-04-29 18:29 52.18092 13.12120 815 ft 111 kts
2026-04-29 18:29 52.18849 13.12085 823 ft 108 kts
2026-04-29 18:30 52.19604 13.12095 824 ft 103 kts 13°
2026-04-29 18:30 52.20125 13.12764 681 ft 98 kts 69°
2026-04-29 18:30 52.20119 13.13731 401 ft 79 kts 97°
2026-04-29 18:30 52.20173 13.14533 214 ft 67 kts 93°
2026-04-29 18:31 52.20280 13.15278 161 ft 68 kts 86°
2026-04-29 18:31 52.20387 13.15976 141 ft 57 kts 76°
2026-04-29 18:31 52.20491 13.16649 150 ft 73 kts 78°
2026-04-29 18:31 52.20589 13.17486 400 ft 78 kts 83°
2026-04-29 18:32 52.20651 13.18394 670 ft 83 kts 79°
2026-04-29 18:32 52.20494 13.20350 966 ft 105 kts 133°
2026-04-29 18:32 52.19740 13.20737 958 ft 121 kts 169°
2026-04-29 18:33 52.18947 13.20894 1002 ft 109 kts 167°
2026-04-29 18:33 52.18222 13.21110 951 ft 106 kts 162°
2026-04-29 18:33 52.17540 13.21443 966 ft 95 kts 155°
2026-04-29 18:33 52.16942 13.21811 1016 ft 92 kts 151°
2026-04-29 18:34 52.16368 13.22250 1064 ft 89 kts 148°
2026-04-29 18:34 52.15997 13.22548 1122 ft 85 kts 146°
2026-04-29 18:34 52.15295 13.23149 1164 ft 86 kts 144°
2026-04-29 18:34 52.14761 13.23628 1254 ft 86 kts 142°
2026-04-29 18:35 52.14319 13.24234 1335 ft 87 kts 128°
2026-04-29 18:35 52.13900 13.24939 1477 ft 81 kts 127°
2026-04-29 18:35 52.13505 13.25652 1590 ft 92 kts 127°
2026-04-29 18:35 52.13190 13.26576 1729 ft 100 kts 95°
2026-04-29 18:36 52.13235 13.27746 1875 ft 106 kts 78°
2026-04-29 18:36 52.13406 13.28917 2015 ft 106 kts 76°
2026-04-29 18:36 52.13581 13.30085 2152 ft 107 kts 76°
2026-04-29 18:36 52.13760 13.31262 2287 ft 107 kts 76°
2026-04-29 18:37 52.13938 13.32446 2419 ft 108 kts 76°
2026-04-29 18:37 52.14117 13.33647 2499 ft 113 kts 75°
2026-04-29 18:37 52.14310 13.34924 2509 ft 119 kts 76°
2026-04-29 18:37 52.14507 13.36257 2511 ft 123 kts 76°
2026-04-29 18:38 52.14708 13.37616 2509 ft 125 kts 76°
2026-04-29 18:38 52.14916 13.38988 2514 ft 125 kts 75°
2026-04-29 18:38 52.15121 13.40374 2512 ft 127 kts 76°
2026-04-29 18:38 52.15328 13.41777 2511 ft 128 kts 75°
2026-04-29 18:39 52.15529 13.43140 2505 ft 120 kts 76°
2026-04-29 18:39 52.15717 13.44423 2496 ft 116 kts 76°
2026-04-29 18:39 52.15901 13.45685 2497 ft 113 kts 75°
2026-04-29 18:39 52.16080 13.46926 2496 ft 112 kts 76°
2026-04-29 18:40 52.16262 13.48159 2494 ft 112 kts 75°
2026-04-29 18:40 52.16438 13.49381 2496 ft 111 kts 76°
2026-04-29 18:40 52.16617 13.50605 2495 ft 110 kts 76°
2026-04-29 18:40 52.16797 13.51818 2494 ft 110 kts 75°
2026-04-29 18:41 52.17338 13.55477 2495 ft 111 kts 76°
2026-04-29 18:41 52.17603 13.56653 2494 ft 111 kts 56°
2026-04-29 18:42 52.18191 13.57469 2500 ft 112 kts 33°
2026-04-29 18:42 52.18906 13.57990 2501 ft 114 kts 19°
2026-04-29 18:42 52.19693 13.58184 2501 ft 114 kts 10°
2026-04-29 18:42 52.20481 13.58266 2505 ft 116 kts
2026-04-29 18:43 52.21294 13.58261 2506 ft 117 kts
2026-04-29 18:43 52.22111 13.58261 2510 ft 117 kts
2026-04-29 18:43 52.22927 13.58173 2509 ft 118 kts 354°
2026-04-29 18:43 52.23740 13.57973 2509 ft 117 kts 354°
2026-04-29 18:44 52.24548 13.57780 2509 ft 117 kts 354°
2026-04-29 18:44 52.25359 13.57586 2509 ft 118 kts 354°
2026-04-29 18:44 52.26176 13.57391 2511 ft 119 kts 355°
2026-04-29 18:44 52.26995 13.57199 2513 ft 119 kts 354°
2026-04-29 18:45 52.27814 13.56975 2512 ft 121 kts 344°
2026-04-29 18:45 52.28363 13.55977 2501 ft 129 kts 285°
2026-04-29 18:45 52.28267 13.54517 2500 ft 130 kts 270°
2026-04-29 18:45 52.28650 13.53281 2501 ft 123 kts 332°
2026-04-29 18:46 52.29440 13.53244 2503 ft 117 kts 32°
2026-04-29 18:46 52.29803 13.54364 2500 ft 119 kts 91°
2026-04-29 18:46 52.29344 13.55465 2498 ft 127 kts 150°
2026-04-29 18:46 52.28473 13.55411 2500 ft 133 kts 209°
2026-04-29 18:47 52.27996 13.54181 2499 ft 132 kts 268°
2026-04-29 18:47 52.28340 13.52884 2499 ft 126 kts 326°
2026-04-29 18:47 52.29147 13.52687 2499 ft 120 kts 24°
2026-04-29 18:47 52.29653 13.53697 2500 ft 120 kts 77°
2026-04-29 18:48 52.29390 13.54954 2501 ft 126 kts 135°
2026-04-29 18:48 52.28547 13.55265 2500 ft 133 kts 193°
2026-04-29 18:48 52.27889 13.54267 2499 ft 134 kts 252°
2026-04-29 18:48 52.28007 13.52844 2498 ft 129 kts 310°
2026-04-29 18:49 52.28761 13.52275 2503 ft 121 kts
2026-04-29 18:49 52.29498 13.52874 2509 ft 120 kts 25°
2026-04-29 18:49 52.30334 13.52943 2519 ft 123 kts 356°
2026-04-29 18:49 52.31161 13.52587 2517 ft 126 kts 342°
2026-04-29 18:50 52.31969 13.52021 2519 ft 126 kts 340°
2026-04-29 18:50 52.32604 13.51086 2514 ft 133 kts 292°
2026-04-29 18:50 52.32720 13.49505 2199 ft 148 kts 273°
2026-04-29 18:50 52.32491 13.47918 1870 ft 144 kts 236°
2026-04-29 18:51 52.31925 13.46635 1684 ft 134 kts 234°
2026-04-29 18:51 52.31397 13.45413 1562 ft 130 kts 232°
2026-04-29 18:51 52.30666 13.44795 1531 ft 119 kts 168°
2026-04-29 18:51 52.30127 13.45661 1385 ft 117 kts 94°
2026-04-29 18:52 52.30576 13.46617 1279 ft 118 kts
2026-04-29 18:52 52.31256 13.45937 1168 ft 127 kts 293°
2026-04-29 18:52 52.31432 13.44532 1050 ft 126 kts 307°
2026-04-29 18:52 52.32174 13.43912 901 ft 124 kts 359°
2026-04-29 18:53 52.32993 13.43859 848 ft 104 kts
2026-04-29 18:53 52.33641 13.44115 678 ft 90 kts 30°
2026-04-29 18:53 52.34069 13.44776 522 ft 74 kts 63°
2026-04-29 18:53 52.34239 13.45512 346 ft 68 kts 69°
2026-04-29 18:54 52.34410 13.46247 277 ft 70 kts 71°
2026-04-29 18:54 52.34583 13.47003 204 ft 72 kts 71°
2026-04-29 18:54 52.34755 13.47732 161 ft 62 kts 71°
2026-04-29 18:54 52.34895 13.48324 153 ft 56 kts 69°
2026-04-29 18:55 52.35080 13.49111 203 ft 88 kts 70°
2026-04-29 18:55 52.35339 13.50133 370 ft 108 kts 66°
2026-04-29 18:55 52.35647 13.51331 616 ft 114 kts 68°
2026-04-29 18:55 52.35937 13.52481 799 ft 110 kts 69°
2026-04-29 18:56 52.36155 13.53695 952 ft 113 kts 91°
2026-04-29 18:56 52.35775 13.54846 1029 ft 123 kts 138°
2026-04-29 18:56 52.35025 13.55523 1112 ft 127 kts 153°
2026-04-29 18:56 52.34197 13.55995 1195 ft 125 kts 175°
2026-04-29 18:57 52.33352 13.55523 1080 ft 134 kts 216°
2026-04-29 18:57 52.32768 13.54371 1008 ft 132 kts 240°
2026-04-29 18:57 52.32367 13.53037 954 ft 128 kts 247°
2026-04-29 18:57 52.32019 13.51713 934 ft 125 kts 247°
2026-04-29 18:58 52.31683 13.50403 879 ft 125 kts 246°
2026-04-29 18:58 52.31345 13.49123 906 ft 120 kts 246°
2026-04-29 18:58 52.31018 13.47867 898 ft 121 kts 246°
2026-04-29 18:58 52.30746 13.46590 898 ft 120 kts 269°
2026-04-29 18:59 52.31036 13.45492 933 ft 101 kts 315°
2026-04-29 18:59 52.31579 13.44800 846 ft 98 kts 330°
2026-04-29 18:59 52.32149 13.44228 798 ft 94 kts 336°
2026-04-29 18:59 52.32786 13.43945 765 ft 97 kts 351°
2026-04-29 19:00 52.33435 13.43885 787 ft 91 kts 22°
2026-04-29 19:00 52.33928 13.44486 689 ft 81 kts 52°
2026-04-29 19:00 52.34167 13.45239 488 ft 72 kts 68°
2026-04-29 19:00 52.34354 13.46026 326 ft 77 kts 71°
2026-04-29 19:01 52.34548 13.46847 215 ft 76 kts 71°
2026-04-29 19:01 52.34717 13.47575 153 ft 59 kts 70°
2026-04-29 19:01 52.34870 13.48224 153 ft 76 kts 69°
2026-04-29 19:01 52.35088 13.49126 305 ft 92 kts 70°
2026-04-29 19:02 52.35233 13.50154 510 ft 94 kts 97°
2026-04-29 19:02 52.35085 13.50820 623 ft 92 kts 119°
2026-04-29 19:02 52.34481 13.51777 822 ft 90 kts 142°
2026-04-29 19:02 52.33864 13.52092 924 ft 94 kts 168°
2026-04-29 19:03 52.33249 13.51748 1022 ft 101 kts 220°
2026-04-29 19:03 52.32839 13.50784 1091 ft 106 kts 241°
2026-04-29 19:03 52.32490 13.49742 1144 ft 103 kts 241°
2026-04-29 19:03 52.32130 13.48733 1183 ft 102 kts 237°
2026-04-29 19:04 52.31703 13.47819 1229 ft 101 kts 213°
2026-04-29 19:04 52.31094 13.48090 1180 ft 102 kts 116°
2026-04-29 19:04 52.31283 13.49047 1111 ft 101 kts 25°
2026-04-29 19:04 52.31814 13.48500 1071 ft 104 kts 276°
2026-04-29 19:05 52.31538 13.47458 1137 ft 100 kts 223°
2026-04-29 19:05 52.30940 13.47589 1163 ft 96 kts 120°
2026-04-29 19:05 52.31013 13.48543 1229 ft 92 kts 41°
2026-04-29 19:05 52.31595 13.48491 1283 ft 98 kts 316°
2026-04-29 19:06 52.31619 13.47365 1227 ft 110 kts 240°
2026-04-29 19:06 52.31191 13.46348 1245 ft 108 kts 231°
2026-04-29 19:06 52.30319 13.44442 1253 ft 103 kts 240°
2026-04-29 19:07 52.29977 13.43415 1290 ft 103 kts 240°
2026-04-29 19:07 52.29858 13.43073 1307 ft 102 kts 240°
2026-04-29 19:07 52.29581 13.41238 1356 ft 108 kts 288°
2026-04-29 19:07 52.29983 13.40187 1367 ft 110 kts 319°
2026-04-29 19:08 52.30647 13.39704 1344 ft 108 kts
2026-04-29 19:08 52.31354 13.39984 1314 ft 104 kts 21°
2026-04-29 19:08 52.32023 13.40398 1272 ft 103 kts 24°
2026-04-29 19:08 52.32660 13.40915 1230 ft 101 kts 37°
2026-04-29 19:09 52.32882 13.41902 1190 ft 103 kts 107°
2026-04-29 19:09 52.32299 13.42485 1173 ft 107 kts 178°
2026-04-29 19:09 52.31847 13.42210 1217 ft 104 kts 220°
2026-04-29 19:09 52.31709 13.40742 1214 ft 103 kts 299°
2026-04-29 19:10 52.32044 13.40211 1193 ft 103 kts 337°
2026-04-29 19:10 52.32727 13.40262 1134 ft 102 kts 32°
2026-04-29 19:10 52.32956 13.41267 1038 ft 107 kts 108°
2026-04-29 19:10 52.32378 13.41920 1042 ft 105 kts 173°
2026-04-29 19:11 52.31749 13.41448 1097 ft 104 kts 234°